Terminal Aerodrome Forecast
Issued by NWS Louisville, KY

Home | Current Version | Previous Version | Text Only | Print | Product List | Glossary On
Versions: 1 2 3 4 5 6 7 8 9 10 11 12 13 14 15 16 17 18 19 20 21 22
438
FTUS43 KLMK 261728
TAFSDF
TAF
KSDF 261728Z 2618/2724 22012G18KT P6SM VCSH FEW025 BKN035
     FM262100 21011KT P6SM -SHRA VCTS BKN025CB
     FM270100 22005KT P6SM BKN035
     FM270900 VRB03KT 6SM BR FEW025 SCT250
     FM271500 16006KT P6SM VCSH SCT035 BKN150=

USA.gov is the U.S. government's official web portal to all federal, state and local government web resources and services.